EHI
0 0 0 0 0 0 0 0 0 0 0 0 0 0 0 0 0 0 0 0 0 0 0 0 0 0 0 0 0 0 0 0 0 0 0 0 0 0 0 0 0 0 0
0 0 0 0 0 0 0 0 0 0 0 0 0 0 0 0 0 0 0 0 0 0 0 0 0 0 0 0 0 0 0 0 0 0 0 0 0 0 0 0 0 0 0
0 0 0 0 0 0 0 0 0 0 0 0 0 0 0 0 0 0 0 0 0 0 0 0 0 0 0 0 0 0 0 0 0 0 0 0 0 0 0 0 0 0 0
0 0 0 0 0 0 0 0 0 0 0 0 0 0 0 0 0 0 0 0 0 0 0 0 0 0 0 0 0 0 0 0 0 0 0 0 0 0 0 0 0 0 0
0 0 0 0 0 0 0 0 0 0 0 0 0 0 0 0 0 0 0 0 0 0 0 0 0 0 0 0 0 0 0 0 0 0 0 0 0 0 0 0 0 0 0
0 0 0 0 0 0 0 0 0 0 0 0 0 0 0 0 0 0 0 0 0 0 0 0 0 0 0 0 0 0 0 0 0 0 0 0 0 0 0 0 0 0 0
0 0 0 0 0 0 0 0 0 0 0 0 0 0 0 0 0 0 0 0 0 0 0 0 0 0 0 0 0 0 0 0 0 0 0 0 0 0 0 0 0 0 0
0 0 0 0 0 0 0 0 0 0 0 0 0 0 0 0 0 0 0 0 0 0 0 0 0 0 0 0 0 0 0 0 0 0 0 0 0 0 0 0 0 0 0
0 0 0 0 0 0 0 0 0 0 0 0 0 0 0 0 0 0 0 0 0 0 0 0 0 0 0 0 0 0 0 0 0 0 0 0 0 0 0 0 0 0 0
0 0 0 0 0 0 0 0 0 0 0 0 0 0 0 0 0 0 0 0 0 0 0 0 0 0 0 0 0 0 0 0 0 0 0 0 0 0 0 0 0 0 0
0 0 0 0 0 0 0 0 0 0 0 0 0 0 0 0 0 0 0 0 0 0 0 0 0 0 0 0 0 0 0 0 0 0 0 0 0 0 0 0 0 0 0
0 0 0 0 0 0 0 0 0 0 0 0 0 0 0 0 0 0 0 0 0 0 0 0 0 0 0 0 0 0 0 0 0 0 0 0 0 0 0 0 0 0 0
0 0 0 0 0 0 0 0 0 0 0 0 0 0 0 0 0 0 0 0 0 0 0 0 0 0 0 0 0 0 0 0 0 0 0 0 0 0 0 0 0 0 0
0 0 0 0 0 0 0 0 0 0 0 0 0 0 0 0 0 0 0 0 0 0 0 0 0 0 0 0 0 0 0 0 0 0 0 0 0 0 0 0 0 0 0
0 0 0 0 0 0 0 0 0 0 0 0 0 0 0 0 0 0 0 0 0 0 0 0 0 0 0 0 0 0 0 0 0 0 0 0 0 0 0 0 0 0 0
0 0 0 0 0 0 0 0 0 0 0 0 0 0 0 0 0 0 0 0 0 0 0 0 0 0 0 0 0 0 0 0 0 0 0 0 0 0 0 0 0 0 0
0 0 0 0 0 0 0 0 0 0 0 0 0 0 0 0 0 0 0 0 0 0 0 0 0 0 0 0 0 0 0 0 0 0 0 0 0 0 0 0 0 0 0
0 0 0 0 0 0 0 0 0 0 0 0 0 0 0 0 0 0 0 0 0 0 0 0 0 0 0 0 0 0 0 0 0 0 0 0 0 0 0 0 0 0 0
0 0 0 0 0 0 0 0 0 0 0 0 0 0 0 0 0 0 0 0 0 0 0 0 0 0 0 0 0 0 0 0 0 0 0 0 0 0 0 0 0 0 0
0 0 0 0 0 0 0 0 0 0 0 0 0 0 0 0 0 0 0 0 0 0 0 0 0 0 0 0 0 0 0 0 0 0 0 0 0 0 0 0 0 0 0
0 0 0 0 0 0 0 0 0 0 0 0 0 0 0 0 0 0 0 0 0 0 0 0 0 0 0 0 0 0 0 0 0 0 0 0 0 0 0 0 0 0 0
0 0 0 0 0 0 0 0 0 0 0 0 0 0 0 0 0 0 0 0 0 0 0 0 0 0 0 0 0 0 0 0 0 0 0 0 0 0 0 0 0 0 0
0 0 0 0 0 0 0 0 0 0 0 0 0 0 0 0 0 0 0 0 0 0 0 0 0 0 0 0 0 0 0 0 0 0 0 0 0 0 0 0 0 0 0
0 0 0 0 0 0 0 0 0 0 0 0 0 0 0 0 0 0 0 0 0 0 0 0 0 0 0 0 0 0 0 0 0 0 0 0 0 0 0 0 0 0 0
0 0 0 0 0 0 0 0 0 0 0 0 0 0 0 0 0 0 0 0 0 0 0 0 0 0 0 0 0 0 0 0 0 0 0 0 0 0 0 0 0 0 0
0 0 0 0 0 0 0 0 0 0 0 0 0 0 0 0 0 0 0 0 0 0 0 0 0 0 0 0 0 0 0 0 0 0 0 0 0 0 0 0 0 0 0
Wind_Speed
13 13 14 13 13 13 12 11 10 9 8 8 7 6 5 4 3 2 3 2 3 4 5 6 7 7 7 8 8 8 9 10 12 12 11 11 14 15 14 15 15 15 13
13 13 14 13 13 12 12 11 10 9 8 7 6 5 4 4 2 2 2 3 4 5 6 7 8 7 9 9 8 9 9 10 12 14 12 12 14 15 15 15 14 12 13
13 14 14 13 13 12 11 10 9 8 7 6 5 4 3 2 2 2 3 4 5 6 7 8 9 9 10 9 10 10 9 9 10 12 13 12 12 13 14 14 14 12 14
13 13 13 13 12 11 11 9 8 7 6 5 4 3 2 1 2 3 5 5 6 7 8 8 9 9 10 11 10 10 10 11 11 11 12 12 12 13 12 11 11 11 11
12 13 12 12 11 10 9 8 7 5 4 3 3 2 2 2 6 8 7 7 7 8 9 8 8 9 10 10 10 12 12 11 11 10 11 11 11 11 10 9 11 11 11
12 11 11 10 9 8 7 6 5 4 3 3 3 3 3 6 8 8 10 10 9 9 9 9 9 9 8 10 13 14 16 15 13 11 10 11 13 12 10 9 10 10 9
11 10 9 8 8 6 6 5 4 3 3 3 3 4 4 8 6 7 9 11 10 8 9 9 8 8 10 9 12 16 16 16 16 12 12 12 13 12 11 11 10 11 11
9 8 8 7 6 5 5 5 4 3 3 3 3 4 3 6 5 6 12 11 8 8 9 9 10 10 8 11 14 15 14 13 13 11 11 12 12 12 11 11 11 11 11
8 7 6 6 6 5 5 4 3 3 3 3 3 4 3 4 5 6 12 10 7 9 10 10 10 10 8 11 14 14 14 13 11 12 14 15 16 16 13 9 8 7 8
7 6 6 6 5 5 5 4 4 2 3 3 3 3 4 3 4 4 10 8 8 8 8 9 7 6 11 13 13 12 13 12 13 13 12 11 10 8 9 8 7 7 6
7 7 6 6 5 5 4 3 2 2 3 3 3 2 2 3 1 1 7 8 9 9 8 7 6 8 13 15 14 10 11 14 13 11 9 8 8 7 6 6 6 5 6
7 7 6 5 4 4 3 2 2 2 1 2 3 3 3 2 3 3 6 8 10 11 8 8 8 12 16 17 12 10 14 14 8 7 7 7 7 7 7 7 7 6 5
6 5 5 5 4 2 1 1 1 2 3 3 4 4 4 5 3 2 7 10 10 10 8 10 12 15 15 11 7 12 12 8 8 7 7 7 6 7 7 7 7 6 5
5 4 4 3 3 2 1 2 3 4 4 4 5 5 6 5 6 8 8 8 8 8 9 9 10 10 9 8 9 8 7 7 8 7 7 6 6 6 6 6 6 7 6
4 3 2 2 1 0 0 2 4 5 6 6 7 7 7 7 8 10 9 9 9 9 12 8 7 8 8 9 9 9 8 8 7 7 6 6 6 6 6 6 6 6 5
2 2 1 0 0 2 2 1 4 2 4 1 2 6 6 6 9 10 10 11 12 12 10 6 7 7 8 8 9 9 9 8 8 8 7 6 6 6 6 6 6 6 6
1 1 2 2 2 2 3 4 1 4 5 5 3 1 5 9 9 10 11 13 11 9 5 6 6 7 8 8 8 8 9 9 8 7 7 7 6 6 6 6 6 6 7
1 1 3 2 3 3 3 4 4 3 2 2 3 1 5 8 8 9 11 10 5 5 5 6 6 7 7 8 8 8 8 9 8 7 7 7 7 6 6 6 7 8 8
4 3 2 3 3 3 3 3 4 4 5 5 4 4 5 7 6 6 7 5 6 6 6 6 6 7 8 8 8 8 8 8 9 8 7 8 7 7 7 7 7 8 8
1 2 3 4 2 2 3 3 4 5 5 5 5 6 7 6 6 6 6 6 6 6 6 7 7 7 8 8 8 8 8 8 9 8 8 8 7 7 8 8 7 7 7
2 3 4 2 3 4 4 4 4 5 5 5 4 5 5 5 5 6 6 6 6 6 7 7 8 8 8 8 9 10 10 9 8 8 8 8 9 8 7 7 7 7 7
3 3 3 4 4 4 4 4 4 4 4 4 4 4 3 4 5 5 6 6 6 6 6 7 7 7 8 9 9 9 9 9 8 8 8 8 8 9 9 8 8 8 8
3 3 4 4 4 3 2 4 4 4 4 4 5 5 5 5 6 6 6 6 6 6 6 6 7 8 9 8 7 7 8 8 7 7 7 8 8 8 8 9 11 11 11
3 3 3 3 3 3 4 4 4 4 4 4 5 5 5 6 6 7 7 7 7 7 7 7 7 10 13 10 8 8 9 9 8 6 8 8 8 8 8 8 9 9 9
4 4 3 3 3 3 4 4 4 4 5 5 5 6 6 7 7 7 7 7 8 7 9 9 8 9 13 15 13 11 10 10 8 8 6 6 8 8 8 9 8 9 10
5 5 4 4 4 4 4 4 5 5 5 5 6 6 7 7 7 7 7 7 8 7 8 8 11 13 15 13 14 12 10 9 10 10 7 7 9 9 9 8 10 9 10
Wind_Direction
92 96 100 102 103 103 102 103 104 105 108 109 111 115 116 111 94 60 29 5 333 334 324 321 315 316 307 309 299 293 292 294 294 297 300 300 298 293 293 291 289 289 287
97 99 100 102 103 102 103 104 106 105 105 106 107 103 98 88 65 26 2 348 334 330 326 320 315 313 309 297 301 301 298 297 294 297 298 298 296 295 292 292 292 291 290
103 103 103 104 102 102 102 102 100 100 98 96 99 100 92 79 57 5 343 333 328 324 321 317 314 311 305 307 305 299 298 296 294 294 297 299 297 297 299 296 296 296 292
101 102 101 99 99 100 99 97 94 94 94 91 86 78 64 28 357 349 336 329 323 319 315 309 305 307 309 311 304 302 302 302 299 295 294 297 298 299 299 300 299 295 293
101 100 99 98 97 96 92 88 86 86 90 84 74 65 18 13 26 0 336 324 323 316 311 307 305 307 297 297 304 310 309 303 300 297 297 297 297 300 301 301 296 297 294
99 99 100 99 96 94 94 95 95 92 78 63 42 24 21 48 51 16 339 325 317 311 312 311 306 291 298 291 284 291 296 294 297 296 293 292 294 298 301 297 297 297 296
103 105 106 107 107 110 114 110 101 88 73 54 32 28 55 82 52 8 343 313 308 314 312 310 310 317 310 314 314 305 294 286 281 284 286 289 295 297 297 296 295 298 298
111 111 112 117 121 121 114 100 90 71 51 39 26 23 31 89 57 356 329 300 307 314 311 309 311 313 331 336 318 306 302 300 296 292 289 293 294 295 294 293 294 295 294
114 117 125 128 121 116 101 87 67 48 36 15 30 8 360 89 70 358 328 314 318 317 314 314 313 314 346 329 312 304 302 302 296 285 281 279 277 276 276 282 288 294 302
124 127 127 114 101 93 81 66 61 42 27 359 33 4 349 17 84 357 328 319 323 316 311 307 302 322 325 314 311 304 302 310 313 308 300 295 293 291 271 271 285 293 299
128 122 113 104 96 88 81 68 48 28 31 9 9 354 357 359 92 82 327 325 329 317 312 312 327 345 320 310 304 298 302 304 299 300 307 318 327 325 320 308 297 291 295
127 118 110 102 93 98 97 81 44 357 355 10 358 345 357 358 349 356 309 302 304 310 313 321 332 327 312 303 301 304 300 296 298 315 325 333 336 336 334 329 324 312 293
127 116 111 108 102 100 91 73 20 351 350 358 356 351 353 350 352 292 292 293 289 300 315 316 306 300 300 300 303 302 300 310 328 331 336 341 344 342 343 339 337 335 325
129 125 133 138 146 137 316 355 1 3 360 356 358 354 350 349 357 351 339 329 324 318 325 315 301 292 301 320 319 321 330 341 335 332 337 341 347 355 360 354 348 347 348
131 140 165 157 108 218 329 20 357 32 27 349 354 353 351 347 358 338 323 329 332 331 323 317 337 344 345 341 339 340 341 345 343 340 344 349 358 6 7 5 358 351 355
141 166 203 243 315 305 326 144 135 48 121 163 316 331 349 359 331 322 319 316 311 308 312 336 344 341 337 335 335 336 339 343 339 339 348 358 9 16 15 19 13 7 6
49 357 315 326 328 318 334 338 68 158 178 181 181 310 337 337 331 328 327 320 305 303 324 345 339 335 332 331 332 332 332 336 337 345 356 3 14 24 23 26 21 15 15
313 261 293 317 321 332 346 346 355 10 63 121 156 115 351 341 334 330 328 324 341 350 350 342 333 328 326 328 330 332 333 338 347 357 9 16 25 29 34 36 33 24 23
314 335 336 329 327 343 349 360 16 20 26 31 33 41 4 340 325 326 329 348 349 343 342 337 329 326 326 328 333 337 340 347 359 9 21 25 35 40 41 43 47 36 34
301 76 316 310 327 359 13 23 29 33 36 37 27 13 358 351 355 353 353 350 344 340 337 332 327 327 329 335 342 349 354 3 12 21 29 35 44 50 54 52 50 47 45
353 120 194 275 31 36 37 40 42 44 42 38 35 34 354 347 354 347 347 346 344 338 333 328 327 333 341 345 352 356 0 12 22 23 30 39 47 52 54 55 56 55 54
21 34 49 57 66 54 44 52 55 55 50 37 30 48 11 360 1 351 348 348 342 334 331 326 327 336 346 348 348 349 1 15 19 19 28 40 46 51 52 51 49 49 51
38 59 79 81 84 105 79 63 58 55 48 36 30 27 16 11 6 359 354 351 345 342 338 336 337 348 353 349 348 351 4 9 6 8 21 39 45 48 50 51 53 54 45
50 54 73 83 80 77 74 69 58 50 41 33 29 29 22 17 10 4 1 355 350 349 349 352 352 356 360 3 2 13 17 357 342 0 24 35 41 42 44 44 45 42 48
58 65 72 73 75 78 77 68 56 46 41 34 30 29 23 21 16 10 2 356 355 359 2 4 1 5 9 18 19 16 2 346 342 339 6 35 38 36 36 39 39 41 43
63 68 72 75 74 72 70 66 58 49 45 40 35 31 28 24 17 9 3 3 5 7 8 8 12 20 17 19 20 10 357 353 350 333 339 36 41 30 24 36 41 46 51